Tracking 35280 objects as of 7-Sep-2026
HD Live streaming from Space Station
objects crossing your sky now

VOSKHOD 1


VOSKHOD 1 is no longer on orbit


NORAD ID: 904
Int'l Code: 1964-065A
Launch date: October 12, 1964
Source: Commonwealth of Independent States (former USSR) (CIS)
Launch site: TYURATAM MISSILE AND SPACE COMPLEX (TTMTR)
Decay date: 1964-10-13
Your satellite tracking list
Your tracking list is empty




NASA's NSSDC Master Catalog

Two Line Element Set (TLE):
1 00904U 64065  A 64286.36936185  .01500201 +00000-0 +00000-0 0  9990
2 00904 064.7172 168.8277 0119390 054.9930 306.1552 16.06260978000012
Source of the keplerian elements: AFSPC